FW6365 Weather Reports


time (UTC)temp
C
wind
direction
speed
KPH
gust
KPH
rain 1hr
cm
rain 24hr
cm
rain mn
cm
humidity
%
barometer
mb
20260505184540 14 224 3.2 8.0 0.00 0.00 0.00 82 1017.3
20260505184026 14 208 3.2 8.0 0.00 0.00 0.00 81 1017.3
20260505183526 14 232 3.2 8.0 0.00 0.00 0.00 82 1017.3
20260505183048 14 196 3.2 9.7 0.00 0.00 0.00 82 1017.3
20260505182528 14 222 3.2 9.7 0.00 0.00 0.00 82 1017.1
20260505182026 14 192 4.8 11.3 0.00 0.00 0.00 83 1017.1
20260505181543 14 172 6.4 11.3 0.00 0.00 0.00 83 1017.2
20260505181026 14 217 6.4 11.3 0.00 0.00 0.00 82 1017.1
20260505180525 14 176 4.8 11.3 0.00 0.00 0.00 83 1017.0
20260505180059 13 231 4.8 11.3 0.00 0.00 0.00 83 1016.9
20260505175526 13 159 3.2 9.7 0.00 0.00 0.00 83 1017.0
20260505175027 13 204 8.0 9.7 0.00 0.00 0.00 82 1017.0
20260505174552 13 202 3.2 8.0 0.00 0.00 0.00 83 1017.0
20260505174026 13 178 4.8 12.9 0.00 0.00 0.00 83 1017.0
20260505173529 13 157 6.4 12.9 0.00 0.00 0.00 83 1017.0
20260505173045 13 175 4.8 12.9 0.00 0.00 0.00 83 1016.8
20260505172526 13 134 4.8 12.9 0.00 0.00 0.00 83 1017.0
20260505172028 13 159 8.0 12.9 0.00 0.00 0.00 83 1016.8
20260505171542 13 142 4.8 9.7 0.00 0.00 0.00 83 1016.9
20260505171026 13 186 4.8 14.5 0.00 0.00 0.00 84 1016.8
20260505170526 13 171 4.8 14.5 0.00 0.00 0.00 83 1016.8
20260505170046 13 184 4.8 9.7 0.00 0.00 0.00 83 1016.8
20260505165528 13 149 4.8 9.7 0.00 0.00 0.00 83 1016.7
20260505165029 13 161 3.2 9.7 0.00 0.00 0.00 83 1016.7
20260505164543 13 207 6.4 14.5 0.00 0.00 0.00 84 1016.7
20260505164031 13 225 8.0 14.5 0.00 0.00 0.00 83 1016.7
20260505163527 13 169 6.4 12.9 0.00 0.00 0.00 84 1016.5
20260505163042 13 146 6.4 12.9 0.00 0.00 0.00 83 1016.5
20260505162525 13 157 8.0 12.9 0.00 0.00 0.00 84 1016.4
20260505162026 13 171 4.8 14.5 0.00 0.00 0.00 84 1016.4
20260505161552 13 189 8.0 14.5 0.00 0.00 0.00 84 1016.4
20260505161027 13 164 8.0 14.5 0.00 0.00 0.00 84 1016.3
20260505160527 13 154 8.0 11.3 0.00 0.00 0.00 85 1016.4
20260505153044 13 176 8.0 12.9 0.00 0.00 0.00 86 1016.2
20260505152525 13 205 4.8 11.3 0.00 0.00 0.00 87 1016.1
20260505152025 13 159 3.2 9.7 0.00 0.00 0.00 87 1016.1
20260505151542 13 168 4.8 9.7 0.00 0.00 0.00 87 1016.1
20260505151026 13 167 4.8 9.7 0.00 0.00 0.00 87 1016.0
20260505150526 13 169 6.4 9.7 0.00 0.00 0.00 87 1016.0
20260505140526 12 186 1.6 6.4 0.00 0.00 0.00 89 1015.6
20260505125025 12 207 3.2 6.4 0.00 0.00 0.00 89 1015.0
20260505124538 12 227 1.6 4.8 0.00 0.00 0.00 89 1015.1
20260505124025 12 184 1.6 6.4 0.00 0.00 0.00 89 1015.0
20260505123527 12 215 3.2 6.4 0.00 0.00 0.00 89 1015.0
20260505123038 12 204 1.6 6.4 0.00 0.00 0.00 88 1015.0
20260505122526 12 218 3.2 14.5 0.00 0.00 0.00 88 1014.9
20260505122026 12 198 3.2 14.5 0.00 0.00 0.00 88 1014.9
20260505121542 12 192 4.8 11.3 0.00 0.00 0.00 88 1014.9
20260505121026 12 227 4.8 11.3 0.00 0.00 0.00 88 1014.8
20260505120525 12 215 1.6 9.7 0.00 0.00 0.00 89 1014.8
20260505120040 12 179 4.8 9.7 0.00 0.00 0.00 89 1014.7
20260505115525 12 187 4.8 9.7 0.00 0.00 0.00 89 1014.7
20260505115025 12 210 4.8 9.7 0.00 0.00 0.00 89 1014.6
20260505114541 12 176 3.2 9.7 0.00 0.00 0.00 89 1014.6
20260505114028 12 163 6.4 9.7 0.00 0.00 0.00 89 1014.5
20260505113524 12 183 4.8 9.7 0.00 0.00 0.00 89 1014.6
20260505113044 12 183 4.8 9.7 0.00 0.00 0.00 89 1014.6
20260505112526 12 215 3.2 8.0 0.00 0.00 0.00 89 1014.6
20260505112026 12 198 3.2 9.7 0.00 0.00 0.00 89 1014.5
20260505111541 12 231 3.2 9.7 0.00 0.00 0.00 89 1014.5
20260505111026 12 231 4.8 11.3 0.00 0.00 0.00 89 1014.6
20260505110528 12 189 3.2 11.3 0.00 0.00 0.00 88 1014.5
20260505102026 12 169 3.2 14.5 0.00 0.00 0.00 88 1014.3
20260505101559 12 224 8.0 14.5 0.00 0.00 0.00 88 1014.2
20260505101026 12 182 4.8 9.7 0.00 0.00 0.00 88 1014.3
20260505100526 12 202 4.8 14.5 0.00 0.00 0.00 88 1014.2
20260505100059 12 184 8.0 14.5 0.00 0.00 0.00 87 1014.1
20260505095529 12 216 6.4 14.5 0.00 0.00 0.00 87 1014.2
20260505095025 12 213 1.6 11.3 0.00 0.00 0.00 87 1014.1
20260505094540 12 269 6.4 11.3 0.00 0.00 0.00 87 1014.2
20260505094025 12 256 3.2 12.9 0.00 0.00 0.00 87 1014.1
20260505093525 12 226 6.4 12.9 0.00 0.00 0.00 87 1014.1
20260505093040 12 237 4.8 12.9 0.00 0.00 0.00 87 1014.0
20260505092525 12 205 6.4 12.9 0.00 0.00 0.00 88 1014.0
20260505092026 12 278 1.6 14.5 0.00 0.00 0.00 88 1014.0
20260505091543 12 238 3.2 14.5 0.00 0.00 0.00 88 1014.0
20260505091025 12 208 4.8 8.0 0.00 0.00 0.00 88 1014.0
20260505090525 12 237 1.6 6.4 0.00 0.00 0.00 88 1013.9
20260505090042 12 240 3.2 6.4 0.00 0.00 0.00 88 1013.8
20260505085526 12 243 1.6 4.8 0.00 0.00 0.00 89 1013.9
20260505085026 12 232 3.2 11.3 0.00 0.00 0.00 89 1013.9
20260505084543 12 279 3.2 11.3 0.00 0.00 0.00 89 1013.9
20260505084026 12 231 4.8 11.3 0.00 0.00 0.00 89 1013.9
20260505083526 12 249 6.4 11.3 0.00 0.00 0.00 89 1013.9
20260505083041 12 238 4.8 9.7 0.00 0.00 0.00 90 1013.8
20260505082525 12 234 4.8 9.7 0.00 0.00 0.00 91 1013.8
20260505082025 12 205 3.2 6.4 0.00 0.00 0.00 91 1013.8
20260505081548 12 0 3.2 11.3 0.00 0.00 0.00 91 1013.9
20260505081025 11 236 1.6 11.3 0.00 0.00 0.00 92 1013.8
20260505080525 11 216 4.8 11.3 0.00 0.00 0.00 92 1013.8
20260505080049 11 208 3.2 8.0 0.00 0.00 0.00 92 1013.9
20260505075525 11 184 3.2 8.0 0.00 0.00 0.00 92 1013.8
20260505075023 11 224 3.2 8.0 0.00 0.00 0.00 92 1013.8
20260505074543 11 190 3.2 8.0 0.00 0.00 0.00 92 1013.8
20260505074023 11 179 4.8 8.0 0.00 0.00 0.00 92 1013.7
20260505073526 11 176 4.8 8.0 0.00 0.00 0.00 92 1013.7
20260505073043 11 151 4.8 8.0 0.00 0.00 0.00 92 1013.7
20260505072522 11 198 6.4 9.7 0.00 0.00 0.00 92 1013.6
20260505072025 11 171 4.8 9.7 0.00 0.00 0.00 92 1013.4
20260505071549 11 200 4.8 8.0 0.00 0.00 0.00 92 1013.4
20260505071025 11 142 3.2 8.0 0.00 0.00 0.00 92 1013.3
20260505070526 11 167 4.8 9.7 0.00 0.00 0.00 92 1013.2
20260505070040 11 151 3.2 9.7 0.00 0.00 0.00 92 1013.2
20260505065526 11 173 3.2 6.4 0.00 0.00 0.00 92 1013.2
20260505065025 11 185 3.2 8.0 0.00 0.00 0.00 91 1013.1
20260505064544 11 198 3.2 8.0 0.00 0.00 0.00 91 1013.1
20260505064025 11 151 3.2 8.0 0.00 0.00 0.00 91 1013.0
20260505063525 11 158 4.8 8.0 0.00 0.00 0.00 91 1012.9
20260505063047 11 152 4.8 8.0 0.00 0.00 0.00 90 1012.9
20260505062525 11 151 1.6 9.7 0.00 0.00 0.00 90 1012.8
20260505062025 11 142 4.8 9.7 0.00 0.00 0.00 90 1012.7
20260505061545 11 150 3.2 8.0 0.00 0.00 0.00 90 1012.6
20260505061026 11 171 3.2 6.4 0.00 0.00 0.00 89 1012.6
20260505060525 11 149 3.2 8.0 0.00 0.00 0.00 89 1012.7
20260505060043 11 132 3.2 9.7 0.00 0.00 0.00 90 1012.6
20260505055526 11 182 3.2 9.7 0.00 0.00 0.00 89 1012.7
20260505055026 12 205 3.2 8.0 0.00 0.00 0.00 89 1012.6
20260505054547 12 175 1.6 8.0 0.00 0.00 0.00 89 1012.7
20260505054026 12 225 3.2 6.4 0.00 0.00 0.00 89 1012.7
20260505053525 12 180 3.2 6.4 0.00 0.00 0.00 89 1012.6
20260505053047 12 183 3.2 8.0 0.00 0.00 0.00 89 1012.6
20260505052528 12 215 3.2 8.0 0.00 0.00 0.00 89 1012.6
20260505052028 12 173 1.6 8.0 0.00 0.00 0.00 89 1012.5
20260505051543 12 201 3.2 9.7 0.00 0.00 0.00 88 1012.7
20260505051024 12 165 4.8 9.7 0.00 0.00 0.00 88 1012.7
20260505050525 12 258 3.2 9.7 0.00 0.00 0.00 88 1012.5
20260505041540 12 192 4.8 9.7 0.00 0.00 0.00 86 1012.1
20260505041025 12 182 3.2 8.0 0.00 0.00 0.00 85 1012.0
20260505040525 13 170 4.8 12.9 0.00 0.00 0.00 85 1012.1
20260505040045 13 214 4.8 12.9 0.00 0.00 0.00 85 1011.9
20260505035524 13 219 3.2 14.5 0.00 0.00 0.00 84 1011.9
20260505035024 13 184 6.4 14.5 0.00 0.00 0.00 84 1011.8
20260505034546 13 202 6.4 14.5 0.00 0.00 0.00 83 1011.8
20260505034025 13 246 6.4 14.5 0.00 0.00 0.00 83 1011.6
20260505033525 13 255 4.8 12.9 0.00 0.00 0.00 82 1011.6
20260505033041 13 210 6.4 14.5 0.00 0.00 0.00 81 1011.5
20260505032525 14 243 8.0 19.3 0.00 0.00 0.00 81 1011.5
20260505032023 14 180 6.4 19.3 0.00 0.00 0.00 80 1011.5
20260505031547 14 226 8.0 24.1 0.00 0.00 0.00 79 1011.5
20260505031027 15 214 12.9 24.1 0.00 0.00 0.00 78 1011.4
20260505030525 15 217 12.9 20.9 0.00 0.00 0.00 76 1011.3
20260505030042 16 240 12.9 20.9 0.00 0.00 0.00 75 1011.3
20260505025526 16 210 6.4 14.5 0.00 0.00 0.00 74 1011.3
20260505025025 16 244 4.8 14.5 0.00 0.00 0.00 73 1011.1
20260505024544 17 248 8.0 14.5 0.00 0.00 0.00 72 1011.1
20260505024026 17 241 6.4 14.5 0.00 0.00 0.00 71 1011.0
20260505023523 17 231 8.0 16.1 0.00 0.00 0.00 70 1011.0
20260505023050 17 218 8.0 17.7 0.00 0.00 0.00 70 1010.9
20260505022523 17 221 8.0 17.7 0.00 0.00 0.00 69 1010.9
20260505022023 18 186 8.0 17.7 0.00 0.00 0.00 68 1010.8
20260505021544 18 219 8.0 17.7 0.00 0.00 0.00 67 1010.9
20260505021022 18 180 8.0 17.7 0.00 0.00 0.00 67 1010.9
20260505020522 18 260 8.0 16.1 0.00 0.00 0.00 66 1010.8
20260505020040 18 243 6.4 24.1 0.00 0.00 0.00 67 1010.8
20260505015523 18 233 9.7 24.1 0.00 0.00 0.00 66 1010.8
20260505015026 19 213 11.3 24.1 0.00 0.00 0.00 66 1010.8
20260505014542 19 220 12.9 19.3 0.00 0.00 0.00 65 1010.8
20260505014022 20 221 9.7 17.7 0.00 0.00 0.00 65 1010.8
20260505013525 20 180 9.7 16.1 0.00 0.00 0.00 64 1010.8
20260505013039 20 225 6.4 17.7 0.00 0.00 0.00 65 1010.9
20260505012525 20 220 9.7 17.7 0.00 0.00 0.00 65 1010.8
20260505012025 20 221 8.0 16.1 0.00 0.00 0.00 63 1010.8
20260505011544 20 222 8.0 14.5 0.00 0.00 0.00 63 1010.7
20260505011027 21 242 6.4 17.7 0.00 0.00 0.00 63 1010.7
20260505010525 21 239 9.7 17.7 0.00 0.00 0.00 63 1010.7
20260505010103 21 173 9.7 20.9 0.00 0.00 0.00 62 1010.7
20260505005525 21 220 8.0 25.7 0.00 0.00 0.00 63 1010.8
20260505005023 21 240 12.9 25.7 0.00 0.00 0.00 62 1010.8
20260505004541 21 235 12.9 29.0 0.00 0.00 0.00 62 1010.7
20260505004026 21 257 11.3 29.0 0.00 0.00 0.00 62 1010.8
20260505003524 21 198 12.9 25.7 0.00 0.00 0.00 61 1010.7
20260505003045 21 243 12.9 24.1 0.00 0.00 0.00 60 1010.8
20260505002522 21 229 14.5 24.1 0.00 0.00 0.00 59 1010.6
20260505002022 22 240 12.9 27.4 0.00 0.00 0.00 59 1010.6
20260505001541 22 188 12.9 27.4 0.00 0.00 0.00 59 1010.5
20260505001025 22 240 14.5 25.7 0.00 0.00 0.00 59 1010.4
20260505000522 22 248 11.3 20.9 0.00 0.00 0.00 60 1010.6
20260505000045 22 250 12.9 22.5 0.00 0.00 0.00 58 1010.5
20260504235526 23 189 12.9 22.5 0.00 0.00 0.00 56 1010.6
20260504235025 23 250 12.9 20.9 0.00 0.00 0.00 57 1010.7
20260504234544 23 207 11.3 20.9 0.00 0.00 0.00 60 1010.6
20260504234026 23 206 9.7 19.3 0.00 0.00 0.00 58 1010.6
20260504233525 23 213 8.0 17.7 0.00 0.00 0.00 59 1010.5
20260504233042 23 204 8.0 19.3 0.00 0.00 0.00 57 1010.7
20260504232525 23 275 9.7 19.3 0.00 0.00 0.00 58 1010.6
20260504232024 23 223 8.0 19.3 0.00 0.00 0.00 58 1010.6
20260504231545 23 246 12.9 22.5 0.00 0.00 0.00 57 1010.6
20260504231022 23 234 12.9 24.1 0.00 0.00 0.00 56 1010.6
20260504230525 23 280 14.5 25.7 0.00 0.00 0.00 57 1010.7
20260504230045 23 196 12.9 25.7 0.00 0.00 0.00 56 1010.7
20260504225522 23 215 9.7 20.9 0.00 0.00 0.00 57 1010.7
20260504225022 23 224 11.3 20.9 0.00 0.00 0.00 55 1010.8
20260504224540 23 248 9.7 20.9 0.00 0.00 0.00 56 1010.8
20260504224023 23 282 8.0 19.3 0.00 0.00 0.00 58 1010.7
20260504223525 23 205 9.7 19.3 0.00 0.00 0.00 55 1010.8
20260504223058 23 247 8.0 17.7 0.00 0.00 0.00 59 1010.8
20260504222526 23 183 11.3 22.5 0.00 0.00 0.00 56 1011.0
20260504222025 23 231 12.9 25.7 0.00 0.00 0.00 57 1010.8
20260504221556 23 217 12.9 25.7 0.00 0.00 0.00 57 1010.9
20260504221025 23 238 9.7 20.9 0.00 0.00 0.00 57 1011.0
20260504220528 23 193 6.4 20.9 0.00 0.00 0.00 59 1011.1
20260504220044 23 227 11.3 22.5 0.00 0.00 0.00 56 1011.0
20260504215522 23 200 11.3 22.5 0.00 0.00 0.00 57 1011.1
20260504215025 23 163 11.3 20.9 0.00 0.00 0.00 56 1011.1
20260504214538 23 222 11.3 20.9 0.00 0.00 0.00 59 1011.2
20260504214022 23 247 9.7 20.9 0.00 0.00 0.00 56 1011.2
20260504213522 23 251 8.0 19.3 0.00 0.00 0.00 59 1011.3
20260504213057 23 233 9.7 19.3 0.00 0.00 0.00 57 1011.1
20260504212523 23 205 6.4 19.3 0.00 0.00 0.00 60 1011.2
20260504212022 23 211 6.4 19.3 0.00 0.00 0.00 56 1011.4
20260504211546 23 252 9.7 19.3 0.00 0.00 0.00 58 1011.3
20260504211022 23 258 11.3 17.7 0.00 0.00 0.00 56 1011.3
20260504210525 23 222 9.7 16.1 0.00 0.00 0.00 59 1011.3
20260504210038 23 244 9.7 16.1 0.00 0.00 0.00 59 1011.5
20260504205522 23 275 9.7 19.3 0.00 0.00 0.00 59 1011.4
20260504205025 23 198 9.7 19.3 0.00 0.00 0.00 58 1011.6
20260504204542 23 252 11.3 19.3 0.00 0.00 0.00 59 1011.6
20260504204025 23 250 6.4 19.3 0.00 0.00 0.00 60 1011.6
20260504203528 22 255 9.7 22.5 0.00 0.00 0.00 64 1011.5
20260504203049 22 203 11.3 24.1 0.00 0.00 0.00 62 1011.6
20260504202525 22 210 11.3 24.1 0.00 0.00 0.00 63 1011.6
20260504202024 22 172 12.9 30.6 0.00 0.00 0.00 66 1011.7
20260504201541 22 244 12.9 30.6 0.00 0.00 0.00 65 1011.8
20260504201025 22 190 16.1 24.1 0.00 0.00 0.00 66 1011.8
20260504200525 22 205 14.5 20.9 0.00 0.00 0.00 68 1011.7
20260504200042 21 192 14.5 20.9 0.00 0.00 0.00 66 1011.7
20260504195522 21 219 9.7 22.5 0.00 0.00 0.00 69 1011.8
20260504195022 21 169 12.9 22.5 0.00 0.00 0.00 68 1011.8
20260504194544 21 199 12.9 22.5 0.00 0.00 0.00 66 1011.8
20260504194023 21 183 12.9 20.9 0.00 0.00 0.00 67 1011.8
20260504193524 21 217 9.7 20.9 0.00 0.00 0.00 70 1011.7
20260504193039 21 173 9.7 20.9 0.00 0.00 0.00 69 1011.8
20260504192522 21 211 12.9 20.9 0.00 0.00 0.00 68 1011.9
20260504192026 21 217 9.7 19.3 0.00 0.00 0.00 69 1012.0
20260504191543 20 179 11.3 22.5 0.00 0.00 0.00 69 1012.1
20260504191025 20 162 14.5 22.5 0.00 0.00 0.00 70 1012.2
20260504190523 20 178 11.3 24.1 0.00 0.00 0.00 71 1012.2
20260504190043 20 134 14.5 24.1 0.00 0.00 0.00 69 1012.2
20260504185522 20 134 16.1 24.1 0.00 0.00 0.00 71 1012.3
20260504185025 20 156 16.1 22.5 0.00 0.00 0.00 71 1012.3